Tallevast, FL

9:02 PM EST on February 20, 2017 (GMT -0500)
Sarasota-bradenton

Weather History for KSRQ - January, 2001

Change the Weather History Date:

Friday, January 19, 2001

  Actual Average Record
Temperature  
Mean Temperature 72 °F 61 °F  
Max Temperature 78 °F 71 °F 85 °F (1937)
Min Temperature 66 °F 52 °F 26 °F (1976)
Degree Days  
Heating Degree Days 0 5  
Month to date heating degree days 104  
Since 1 July heating degree days 259  
Cooling Degree Days 7 2  
Month to date cooling degree days 38  
Year to date cooling degree days 38  
Growing Degree Days 22 (Base 50)    
Moisture  
Dew Point 69 °F    
Average Humidity 91    
Maximum Humidity 100    
Minimum Humidity 74    
Precipitation  
Precipitation 0.00 in 0.06 in 0.98 in (1931)
Month to date precipitation 1.81  
Year to date precipitation 1.81  
Sea Level Pressure  
Sea Level Pressure 29.98 in    
Wind  
Wind Speed 14 mph (South)    
Max Wind Speed 22 mph    
Max Gust Speed 30 mph    
Visibility 10 miles    
Events      
T = Trace of Precipitation, MM = Missing Value Source: NWS Daily Summary

Daily Weather History Graph

Daily Weather History Graph

Search for Another Location

Airport or City:

Trip Planner

Search our weather history database for the weather conditions in past years. The results will help you decide how hot, cold, wet, or windy it might be!

Date:

Astronomy

Jan. 19, 2001 Rise Set
Actual Time 7:21 AM EST 6:01 PM EST
Civil Twilight 6:56 AM EST 6:26 PM EST
Nautical Twilight 6:27 AM EST 6:54 PM EST
Astronomical Twilight 5:59 AM EST 7:22 PM EST
Moon 3:16 AM EST (1/19) 2:20 PM EST (1/19)
Length of Visible Light 11h 30m
Length of Day
10h 40m
Waning Crescent, 20% of the Moon is Illuminated
Jan 19
Waning Crescent
Jan 24
New
Feb 1
First Quarter
Feb 8
Full
Feb 14
Last Quarter

Hourly Weather History & Observations

Time (EST) Temp. Dew Point Humidity Pressure Visibility Wind Dir Wind Speed Gust Speed Precip Events Conditions
12:53 AM 68.0 °F 68.0 °F 100% 30.02 in 10.0 mi South 9.2 mph - N/A   Clear
1:01 AM 69.8 °F 69.8 °F 100% 30.02 in 10.0 mi South 10.4 mph - N/A   Scattered Clouds
1:20 AM 69.8 °F 69.8 °F 100% 30.01 in 10.0 mi South 11.5 mph - N/A   Mostly Cloudy
1:34 AM 69.8 °F 69.8 °F 100% 30.01 in 10.0 mi South 11.5 mph - N/A   Scattered Clouds
1:53 AM 69.1 °F 68.0 °F 96% 30.01 in 10.0 mi South 11.5 mph - N/A   Clear
2:21 AM 69.8 °F 68.0 °F 94% 30.01 in 10.0 mi South 11.5 mph - N/A   Scattered Clouds
2:53 AM 69.1 °F 69.1 °F 100% 30.00 in 10.0 mi South 13.8 mph - N/A   Overcast
3:05 AM 69.8 °F 69.8 °F 100% 30.00 in 7.0 mi South 12.7 mph - N/A   Overcast
3:53 AM 68.0 °F 68.0 °F 100% 29.99 in 10.0 mi South 10.4 mph - N/A   Overcast
4:53 AM 70.0 °F 68.0 °F 93% 29.98 in 10.0 mi South 15.0 mph - N/A   Mostly Cloudy
5:53 AM 69.1 °F 68.0 °F 96% 29.98 in 10.0 mi SSE 10.4 mph - N/A   Partly Cloudy
6:53 AM 66.9 °F 66.9 °F 100% 29.98 in 10.0 mi SE 10.4 mph - N/A   Partly Cloudy
7:53 AM 66.9 °F 66.9 °F 100% 29.98 in 8.0 mi SSE 8.1 mph - N/A   Partly Cloudy
8:53 AM 73.0 °F 70.0 °F 90% 29.99 in 10.0 mi South 17.3 mph 24.2 mph N/A   Scattered Clouds
9:53 AM 75.0 °F 70.0 °F 84% 30.00 in 7.0 mi SSE 19.6 mph - N/A   Scattered Clouds
10:05 AM 75.2 °F 69.8 °F 83% 30.00 in 10.0 mi South 21.9 mph 28.8 mph N/A   Mostly Cloudy
10:53 AM 75.9 °F 70.0 °F 82% 30.00 in 10.0 mi South 20.7 mph 29.9 mph N/A   Mostly Cloudy
11:53 AM 77.0 °F 70.0 °F 79% 30.00 in 10.0 mi South 21.9 mph 28.8 mph N/A   Scattered Clouds
12:53 PM 78.1 °F 69.1 °F 74% 29.98 in 10.0 mi South 17.3 mph 25.3 mph N/A   Partly Cloudy
1:53 PM 75.9 °F 69.1 °F 79% 29.96 in 10.0 mi South 21.9 mph - N/A   Partly Cloudy
2:53 PM 73.9 °F 68.0 °F 82% 29.95 in 10.0 mi South 20.7 mph 27.6 mph N/A   Clear
3:53 PM 73.9 °F 69.1 °F 85% 29.95 in 10.0 mi South 18.4 mph - N/A   Clear
4:53 PM 75.0 °F 69.1 °F 82% 29.94 in 10.0 mi South 16.1 mph 24.2 mph N/A   Clear
5:53 PM 73.0 °F 69.1 °F 87% 29.94 in 10.0 mi South 16.1 mph 26.5 mph N/A   Clear
6:53 PM 73.0 °F 70.0 °F 90% 29.94 in 10.0 mi South 16.1 mph 25.3 mph N/A   Clear
7:53 PM 72.0 °F 70.0 °F 93% 29.95 in 10.0 mi South 18.4 mph - N/A   Partly Cloudy
8:53 PM 72.0 °F 70.0 °F 93% 29.95 in 10.0 mi South 16.1 mph - N/A   Scattered Clouds
9:53 PM 72.0 °F 70.0 °F 93% 29.96 in 10.0 mi South 16.1 mph - N/A   Mostly Cloudy
10:53 PM 72.0 °F 70.0 °F 93% 29.96 in 10.0 mi South 16.1 mph - N/A   Overcast
11:53 PM 72.0 °F 70.0 °F 93% 29.96 in 10.0 mi South 17.3 mph 24.2 mph N/A   Mostly Cloudy